Weather History for KFKL - April, 2013

Change the Weather History Date:

Wednesday, April 10, 2013

  Actual Average Record
Temperature  
Mean Temperature 61 °F -  
Max Temperature 71 °F 54 °F 80 °F (1969)
Min Temperature 51 °F 30 °F 12 °F (1985)
Degree Days  
Heating Degree Days 4    
Growing Degree Days 11 (Base 50)    
Moisture  
Dew Point 53 °F    
Average Humidity 75    
Maximum Humidity 94    
Minimum Humidity 53    
Precipitation  
Precipitation 1.54 in - - ()
Sea Level Pressure  
Sea Level Pressure 29.91 in    
Wind  
Wind Speed 7 mph (WSW)    
Max Wind Speed 23 mph    
Max Gust Speed 37 mph    
Visibility 9 miles    
Events Thunderstorm    
Averages and records for this station are not official NWS values.
T = Trace of Precipitation, MM = Missing Value Source: NWS Daily Summary

Daily Weather History Graph

Daily Weather History Graph

Search for Another Location

Airport or City:

Trip Planner

Search our weather history database for the weather conditions in past years. The results will help you decide how hot, cold, wet, or windy it might be!

Date:

Astronomy

Apr. 10, 2013 Rise Set
Actual Time 6:47 AM EDT 7:54 PM EDT
Civil Twilight 6:19 AM EDT 8:23 PM EDT
Nautical Twilight 5:45 AM EDT 8:57 PM EDT
Astronomical Twilight 5:09 AM EDT 9:32 PM EDT
Moon 6:42 AM EDT (4/10) 8:29 PM EDT (4/10)
Length of Visible Light 14h 04m
Length of Day
13h 07m
New Moon, 0% of the Moon is Illuminated
Apr 10
New Moon
Apr 18
First Quarter
Apr 25
Full
May 2
Last Quarter
May 9
New

Hourly Weather History & Observations

Time (EDT) Temp. Dew Point Humidity Pressure Visibility Wind Dir Wind Speed Gust Speed Precip Events Conditions
12:15 AM 69.8 °F 51.8 °F 53% 29.93 in 10.0 mi WSW 11.5 mph 20.7 mph N/A   Scattered Clouds
12:35 AM 69.8 °F 51.8 °F 53% 29.93 in 10.0 mi WSW 9.2 mph - N/A   Mostly Cloudy
12:55 AM 69.8 °F 51.8 °F 53% 29.93 in 10.0 mi WSW 8.1 mph - N/A   Overcast
1:15 AM 68.0 °F 51.8 °F 56% 29.93 in 10.0 mi West 5.8 mph - N/A   Overcast
1:35 AM 64.4 °F 50.0 °F 59% 29.94 in 10.0 mi NW 4.6 mph - N/A   Overcast
1:55 AM 62.6 °F 48.2 °F 59% 29.93 in 10.0 mi West 4.6 mph - N/A   Overcast
2:15 AM 62.6 °F 48.2 °F 59% 29.93 in 10.0 mi WNW 5.8 mph - N/A   Overcast
2:35 AM 62.6 °F 48.2 °F 59% 29.93 in 10.0 mi NW 4.6 mph - N/A   Overcast
2:55 AM 62.6 °F 48.2 °F 59% 29.95 in 10.0 mi West 6.9 mph - N/A   Overcast
3:15 AM 62.6 °F 48.2 °F 59% 29.95 in 10.0 mi WNW 4.6 mph - N/A   Overcast
3:35 AM 60.8 °F 48.2 °F 63% 29.95 in 10.0 mi NW 4.6 mph - N/A   Overcast
3:55 AM 60.8 °F 48.2 °F 63% 29.95 in 10.0 mi NW 4.6 mph - N/A   Overcast
4:15 AM 59.0 °F 48.2 °F 67% 29.95 in 10.0 mi WNW 4.6 mph - N/A   Overcast
4:35 AM 59.0 °F 48.2 °F 67% 29.95 in 10.0 mi North 3.5 mph - N/A   Overcast
4:55 AM 59.0 °F 48.2 °F 67% 29.95 in 10.0 mi Calm Calm - N/A   Overcast
5:15 AM 57.2 °F 48.2 °F 72% 29.95 in 10.0 mi Calm Calm - N/A   Overcast
5:35 AM 57.2 °F 48.2 °F 72% 29.94 in 10.0 mi Calm Calm - N/A   Overcast
5:55 AM 57.2 °F 48.2 °F 72% 29.94 in 10.0 mi Calm Calm - N/A   Overcast
6:15 AM 57.2 °F 48.2 °F 72% 29.94 in 10.0 mi NE 3.5 mph - N/A   Overcast
6:35 AM 57.2 °F 48.2 °F 72% 29.93 in 10.0 mi Calm Calm - N/A   Overcast
6:55 AM 55.4 °F 48.2 °F 77% 29.94 in 10.0 mi South 4.6 mph - N/A   Overcast
7:15 AM 57.2 °F 48.2 °F 72% 29.94 in 10.0 mi Calm Calm - N/A   Mostly Cloudy
7:35 AM 57.2 °F 50.0 °F 77% 29.95 in 10.0 mi Calm Calm - N/A   Overcast
7:55 AM 57.2 °F 50.0 °F 77% 29.95 in 10.0 mi SSE 5.8 mph - N/A   Overcast
8:15 AM 60.8 °F 51.8 °F 72% 29.95 in 10.0 mi South 4.6 mph - N/A   Overcast
8:35 AM 60.8 °F 50.0 °F 68% 29.95 in 10.0 mi South 5.8 mph - N/A   Overcast
8:55 AM 62.6 °F 51.8 °F 68% 29.93 in 10.0 mi SSE 5.8 mph - N/A   Overcast
9:15 AM 62.6 °F 51.8 °F 68% 29.93 in 10.0 mi South 8.1 mph - N/A   Overcast
9:35 AM 66.2 °F 53.6 °F 64% 29.94 in 10.0 mi SW 11.5 mph - N/A   Mostly Cloudy
9:55 AM 66.2 °F 55.4 °F 68% 29.94 in 10.0 mi SW 10.4 mph - N/A   Mostly Cloudy
10:15 AM 66.2 °F 55.4 °F 68% 29.94 in 10.0 mi SW 10.4 mph - N/A   Overcast
10:35 AM 66.2 °F 55.4 °F 68% 29.93 in 10.0 mi SW 10.4 mph - N/A   Overcast
10:55 AM 68.0 °F 57.2 °F 68% 29.93 in 10.0 mi SW 9.2 mph 16.1 mph N/A   Overcast
11:15 AM 66.2 °F 57.2 °F 73% 29.93 in 10.0 mi SW 9.2 mph 17.3 mph 0.03 in   Overcast
11:35 AM 66.2 °F 59.0 °F 78% 29.92 in 10.0 mi SSW 10.4 mph - 0.03 in   Overcast
11:55 AM 66.2 °F 59.0 °F 78% 29.93 in 9.0 mi SW 10.4 mph - 0.13 in   Overcast
12:15 PM 69.8 °F 60.8 °F 73% 29.91 in 10.0 mi SSW 11.5 mph 17.3 mph N/A   Overcast
12:35 PM 69.8 °F 59.0 °F 68% 29.90 in 10.0 mi SW 13.8 mph - N/A   Overcast
1:15 PM 71.6 °F 59.0 °F 64% 29.89 in 10.0 mi SW 13.8 mph 17.3 mph N/A   Overcast
1:35 PM 71.6 °F 57.2 °F 60% 29.90 in 10.0 mi WSW 18.4 mph 21.9 mph 0.01 in Thunderstorm Thunderstorm
1:55 PM 64.4 °F 57.2 °F 77% 29.89 in 10.0 mi South 11.5 mph 36.8 mph 0.22 in Thunderstorm Thunderstorm
2:15 PM 62.6 °F 57.2 °F 82% 29.88 in 10.0 mi SSW 8.1 mph - 0.01 in Thunderstorm Thunderstorm
2:35 PM 62.6 °F 57.2 °F 82% 29.87 in 10.0 mi SW 5.8 mph - 0.01 in   Scattered Clouds
2:55 PM 64.4 °F 57.2 °F 77% 29.88 in 10.0 mi West 6.9 mph - 0.01 in   Mostly Cloudy
3:15 PM 64.4 °F 59.0 °F 83% 29.90 in 10.0 mi SW 8.1 mph - N/A   Overcast
3:35 PM 64.4 °F 59.0 °F 83% 29.87 in 10.0 mi SSW 23.0 mph 31.1 mph N/A Thunderstorm Mostly Cloudy
3:55 PM 64.4 °F 59.0 °F 83% 29.85 in 10.0 mi SW 10.4 mph - N/A   Scattered Clouds
4:15 PM 66.2 °F 60.8 °F 83% 29.84 in 10.0 mi SW 11.5 mph - N/A   Scattered Clouds
4:35 PM 66.2 °F 60.8 °F 83% 29.84 in 10.0 mi SSW 11.5 mph 18.4 mph N/A   Mostly Cloudy
4:55 PM 66.2 °F 60.8 °F 83% 29.84 in 10.0 mi SW 11.5 mph 17.3 mph N/A Thunderstorm Thunderstorm
5:15 PM 64.4 °F 60.8 °F 88% 29.84 in 10.0 mi SW 9.2 mph - 0.07 in Thunderstorm Thunderstorm
5:35 PM 64.4 °F 60.8 °F 88% 29.84 in 10.0 mi SW 6.9 mph - 0.07 in   Overcast
5:55 PM 64.4 °F 60.8 °F 88% 29.82 in 10.0 mi NW 4.6 mph - 0.07 in Thunderstorm Overcast
6:15 PM 62.6 °F 59.0 °F 88% 29.88 in 2.5 mi NW 13.8 mph 26.5 mph 0.47 in Thunderstorm Thunderstorm
6:35 PM 60.8 °F 55.4 °F 82% 29.87 in 10.0 mi WNW 8.1 mph 18.4 mph 0.54 in   Overcast
6:55 PM 59.0 °F 55.4 °F 88% 29.83 in 10.0 mi SW 8.1 mph 17.3 mph 0.60 in Thunderstorm Overcast
7:15 PM 59.0 °F 55.4 °F 88% 29.85 in 10.0 mi WSW 12.7 mph 19.6 mph 0.01 in Thunderstorm Overcast
7:35 PM 59.0 °F 55.4 °F 88% 29.87 in 10.0 mi West 10.4 mph - 0.01 in   Scattered Clouds
7:55 PM 57.2 °F 53.6 °F 88% 29.89 in 10.0 mi NW 10.4 mph 16.1 mph 0.01 in   Mostly Cloudy
8:15 PM 55.4 °F 51.8 °F 88% 29.90 in 9.0 mi WNW 5.8 mph - 0.04 in   Overcast
8:35 PM 53.6 °F 51.8 °F 94% 29.93 in 10.0 mi WNW 9.2 mph - 0.10 in   Overcast
8:55 PM 53.6 °F 50.0 °F 88% 29.91 in 8.0 mi Calm Calm - 0.19 in Thunderstorm Overcast
9:15 PM 53.6 °F 50.0 °F 88% 29.93 in 6.0 mi South 3.5 mph - 0.12 in   Overcast
9:35 PM 53.6 °F 50.0 °F 88% 29.95 in 10.0 mi SW 5.8 mph - 0.19 in   Overcast
9:55 PM 53.6 °F 50.0 °F 88% 29.93 in 10.0 mi WSW 3.5 mph - 0.25 in   Overcast
10:15 PM 51.8 °F 50.0 °F 94% 29.90 in 8.0 mi ESE 4.6 mph - 0.03 in   Overcast
10:35 PM 53.6 °F 51.8 °F 94% 29.86 in 7.0 mi ESE 9.2 mph - 0.06 in   Overcast
10:55 PM 53.6 °F 51.8 °F 94% 29.86 in 8.0 mi NNE 5.8 mph - 0.06 in   Overcast
11:15 PM 53.6 °F 51.8 °F 94% 29.89 in 0.2 mi Calm Calm - N/A   Overcast
11:35 PM 53.6 °F 51.8 °F 94% 29.89 in 0.5 mi NW 5.8 mph - N/A   Overcast
11:55 PM 51.8 °F 48.2 °F 88% 29.87 in 0.2 mi North 6.9 mph - N/A   Overcast